Time,TemperatureF,DewpointF,PressureIn,WindDirection,WindDirectionDegrees,WindSpeedMPH,WindSpeedGustMPH,Humidity,HourlyPrecipIn,Conditions,Clouds,dailyrainin,SoftwareType,DateUTC
2013-08-21 00:03:00,62.5,38.0,29.86,NW,307,0.0,2.0,40,0.00,,,0.00,weatherlink.com 1.10,2013-08-21 07:03:00,
2013-08-21 00:18:00,61.3,38.0,29.86,NW,307,2.0,3.0,43,0.00,,,0.00,weatherlink.com 1.10,2013-08-21 07:18:00,
2013-08-21 00:33:00,60.6,39.0,29.85,NW,307,1.0,3.0,45,0.00,,,0.00,weatherlink.com 1.10,2013-08-21 07:33:00,
2013-08-21 00:48:00,60.7,38.0,29.85,NW,307,1.0,3.0,44,0.00,,,0.00,weatherlink.com 1.10,2013-08-21 07:48:00,
2013-08-21 01:03:00,60.5,39.0,29.85,NW,307,0.0,2.0,45,0.00,,,0.00,weatherlink.com 1.10,2013-08-21 08:03:00,
2013-08-21 01:18:00,59.6,39.0,29.84,NW,307,1.0,3.0,47,0.00,,,0.00,weatherlink.com 1.10,2013-08-21 08:18:00,
2013-08-21 01:33:00,59.1,40.0,29.84,NW,307,2.0,3.0,49,0.00,,,0.00,weatherlink.com 1.10,2013-08-21 08:33:00,
2013-08-21 01:48:00,58.8,39.0,29.84,NW,307,1.0,3.0,49,0.00,,,0.00,weatherlink.com 1.10,2013-08-21 08:48:00,
2013-08-21 02:03:00,58.8,39.0,29.84,NW,307,2.0,3.0,49,0.00,,,0.00,weatherlink.com 1.10,2013-08-21 09:03:00,
2013-08-21 02:18:00,58.7,39.0,29.84,NW,307,1.0,3.0,49,0.00,,,0.00,weatherlink.com 1.10,2013-08-21 09:18:00,
2013-08-21 02:33:00,58.4,40.0,29.83,NW,307,2.0,4.0,51,0.00,,,0.00,weatherlink.com 1.10,2013-08-21 09:33:00,
2013-08-21 02:48:00,58.7,40.0,29.83,NW,307,1.0,2.0,50,0.00,,,0.00,weatherlink.com 1.10,2013-08-21 09:48:00,
2013-08-21 03:03:00,58.3,40.0,29.83,NW,307,1.0,3.0,51,0.00,,,0.00,weatherlink.com 1.10,2013-08-21 10:03:00,
2013-08-21 03:18:00,57.8,40.0,29.83,NW,307,2.0,3.0,52,0.00,,,0.00,weatherlink.com 1.10,2013-08-21 10:18:00,
2013-08-21 03:33:00,57.5,40.0,29.83,NW,307,2.0,3.0,52,0.00,,,0.00,weatherlink.com 1.10,2013-08-21 10:33:00,
2013-08-21 03:49:00,57.1,40.0,29.83,NW,307,2.0,4.0,54,0.00,,,0.00,weatherlink.com 1.10,2013-08-21 10:49:00,
2013-08-21 04:04:00,57.3,40.0,29.83,NW,307,2.0,3.0,53,0.00,,,0.00,weatherlink.com 1.10,2013-08-21 11:04:00,
2013-08-21 04:19:00,57.2,40.0,29.83,NW,307,2.0,3.0,53,0.00,,,0.00,weatherlink.com 1.10,2013-08-21 11:19:00,
2013-08-21 04:34:00,56.7,40.0,29.83,NW,307,3.0,4.0,53,0.00,,,0.00,weatherlink.com 1.10,2013-08-21 11:34:00,
2013-08-21 04:49:00,56.1,40.0,29.83,NW,307,3.0,4.0,55,0.00,,,0.00,weatherlink.com 1.10,2013-08-21 11:49:00,
2013-08-21 05:04:00,55.6,39.0,29.83,NW,307,3.0,4.0,55,0.00,,,0.00,weatherlink.com 1.10,2013-08-21 12:04:00,
2013-08-21 05:19:00,55.2,40.0,29.83,NW,307,2.0,4.0,56,0.00,,,0.00,weatherlink.com 1.10,2013-08-21 12:19:00,
2013-08-21 05:34:00,55.1,39.0,29.83,NW,307,4.0,4.0,56,0.00,,,0.00,weatherlink.com 1.10,2013-08-21 12:34:00,
2013-08-21 05:49:00,55.7,40.0,29.83,NW,307,0.0,3.0,57,0.00,,,0.00,weatherlink.com 1.10,2013-08-21 12:49:00,
2013-08-21 06:04:00,56.6,41.0,29.84,NW,307,1.0,3.0,56,0.00,,,0.00,weatherlink.com 1.10,2013-08-21 13:04:00,
2013-08-21 06:19:00,57.3,41.0,29.84,NW,307,3.0,3.0,55,0.00,,,0.00,weatherlink.com 1.10,2013-08-21 13:19:00,
2013-08-21 06:34:00,57.6,41.0,29.84,NW,307,3.0,4.0,54,0.00,,,0.00,weatherlink.com 1.10,2013-08-21 13:34:00,
2013-08-21 06:49:00,58.2,41.0,29.84,NW,307,1.0,3.0,54,0.00,,,0.00,weatherlink.com 1.10,2013-08-21 13:49:00,
2013-08-21 07:04:00,59.5,43.0,29.84,NW,307,0.0,1.0,54,0.00,,,0.00,weatherlink.com 1.10,2013-08-21 14:04:00,
2013-08-21 07:19:00,63.9,47.0,29.85,NW,307,0.0,1.0,54,0.00,,,0.00,weatherlink.com 1.10,2013-08-21 14:19:00,
2013-08-21 07:34:00,71.5,46.0,29.85,NW,307,0.0,2.0,40,0.00,,,0.00,weatherlink.com 1.10,2013-08-21 14:34:00,
2013-08-21 07:49:00,75.9,45.0,29.85,West,270,0.0,3.0,33,0.00,,,0.00,weatherlink.com 1.10,2013-08-21 14:49:00,
2013-08-21 08:04:00,78.8,46.0,29.85,South,185,4.0,7.0,31,0.00,,,0.00,weatherlink.com 1.10,2013-08-21 15:04:00,
2013-08-21 08:19:00,79.6,46.0,29.85,South,185,2.0,8.0,30,0.00,,,0.00,weatherlink.com 1.10,2013-08-21 15:19:00,
2013-08-21 08:34:00,80.5,45.0,29.85,South,184,2.0,8.0,29,0.00,,,0.00,weatherlink.com 1.10,2013-08-21 15:34:00,
2013-08-21 08:49:00,81.8,46.0,29.85,South,169,4.0,10.0,28,0.00,,,0.00,weatherlink.com 1.10,2013-08-21 15:49:00,
2013-08-21 09:04:00,82.2,45.0,29.85,South,188,6.0,10.0,27,0.00,,,0.00,weatherlink.com 1.10,2013-08-21 16:04:00,
2013-08-21 09:19:00,82.6,45.0,29.85,South,182,8.0,10.0,27,0.00,,,0.00,weatherlink.com 1.10,2013-08-21 16:19:00,
2013-08-21 09:34:00,83.5,43.0,29.86,SW,227,3.0,9.0,24,0.00,,,0.00,weatherlink.com 1.10,2013-08-21 16:34:00,
2013-08-21 09:49:00,84.9,43.0,29.86,South,184,3.0,8.0,23,0.00,,,0.00,weatherlink.com 1.10,2013-08-21 16:49:00,
2013-08-21 10:04:00,84.8,42.0,29.86,SW,217,7.0,11.0,22,0.00,,,0.00,weatherlink.com 1.10,2013-08-21 17:04:00,
2013-08-21 10:19:00,86.1,39.0,29.86,South,171,1.0,9.0,19,0.00,,,0.00,weatherlink.com 1.10,2013-08-21 17:19:00,
2013-08-21 10:34:00,86.2,41.0,29.86,South,182,10.0,13.0,20,0.00,,,0.00,weatherlink.com 1.10,2013-08-21 17:34:00,
2013-08-21 10:49:00,86.6,40.0,29.86,WSW,257,8.0,10.0,19,0.00,,,0.00,weatherlink.com 1.10,2013-08-21 17:49:00,
2013-08-21 11:04:00,86.8,41.0,29.86,SW,218,8.0,10.0,20,0.00,,,0.00,weatherlink.com 1.10,2013-08-21 18:04:00,
2013-08-21 11:19:00,86.8,38.0,29.86,West,269,5.0,9.0,18,0.00,,,0.00,weatherlink.com 1.10,2013-08-21 18:19:00,
2013-08-21 11:34:00,88.4,38.0,29.86,South,182,8.0,10.0,17,0.00,,,0.00,weatherlink.com 1.10,2013-08-21 18:34:00,
2013-08-21 11:49:00,87.7,39.0,29.86,WSW,239,6.0,10.0,18,0.00,,,0.00,weatherlink.com 1.10,2013-08-21 18:49:00,
2013-08-21 12:04:00,89.8,39.0,29.86,SW,219,5.0,16.0,17,0.00,,,0.00,weatherlink.com 1.10,2013-08-21 19:04:00,
2013-08-21 12:19:00,88.9,40.0,29.86,SSE,153,8.0,13.0,18,0.00,,,0.00,weatherlink.com 1.10,2013-08-21 19:19:00,
2013-08-21 12:34:00,90.6,39.0,29.85,NW,315,4.0,11.0,16,0.00,,,0.00,weatherlink.com 1.10,2013-08-21 19:34:00,
2013-08-21 12:49:00,89.8,41.0,29.85,ESE,111,3.0,14.0,18,0.00,,,0.00,weatherlink.com 1.10,2013-08-21 19:49:00,
2013-08-21 13:04:00,89.4,42.0,29.85,East,82,2.0,9.0,19,0.00,,,0.00,weatherlink.com 1.10,2013-08-21 20:04:00,
2013-08-21 13:19:00,88.6,41.0,29.85,ESE,107,5.0,12.0,19,0.00,,,0.00,weatherlink.com 1.10,2013-08-21 20:19:00,
2013-08-21 13:34:00,88.7,41.0,29.85,East,100,2.0,10.0,19,0.00,,,0.00,weatherlink.com 1.10,2013-08-21 20:34:00,
2013-08-21 13:49:00,87.7,42.0,29.84,NE,52,6.0,9.0,20,0.00,,,0.00,weatherlink.com 1.10,2013-08-21 20:49:00,
2013-08-21 14:04:00,87.5,43.0,29.84,ESE,105,7.0,13.0,21,0.00,,,0.00,weatherlink.com 1.10,2013-08-21 21:04:00,
2013-08-21 14:19:00,87.8,44.0,29.84,East,79,8.0,8.0,22,0.00,,,0.00,weatherlink.com 1.10,2013-08-21 21:19:00,
2013-08-21 14:34:00,86.8,44.0,29.84,ENE,62,3.0,9.0,22,0.00,,,0.00,weatherlink.com 1.10,2013-08-21 21:34:00,
2013-08-21 14:49:00,83.7,43.0,29.83,ENE,71,7.0,10.0,24,0.00,,,0.00,weatherlink.com 1.10,2013-08-21 21:49:00,
2013-08-21 15:04:00,81.3,44.0,29.83,East,89,2.0,9.0,27,0.00,,,0.00,weatherlink.com 1.10,2013-08-21 22:04:00,
2013-08-21 15:19:00,82.4,45.0,29.83,NE,55,2.0,8.0,27,0.00,,,0.00,weatherlink.com 1.10,2013-08-21 22:19:00,
2013-08-21 15:34:00,82.0,46.0,29.82,NE,53,3.0,8.0,28,0.00,,,0.00,weatherlink.com 1.10,2013-08-21 22:34:00,
2013-08-21 15:49:00,81.5,46.0,29.82,NNE,31,5.0,8.0,29,0.00,,,0.00,weatherlink.com 1.10,2013-08-21 22:49:00,
2013-08-21 16:04:00,80.7,47.0,29.81,ESE,111,3.0,9.0,30,0.00,,,0.00,weatherlink.com 1.10,2013-08-21 23:04:00,
2013-08-21 16:19:00,80.7,47.0,29.81,ENE,70,4.0,11.0,31,0.00,,,0.00,weatherlink.com 1.10,2013-08-21 23:19:00,
2013-08-21 16:34:00,80.6,47.0,29.81,East,98,1.0,8.0,31,0.00,,,0.00,weatherlink.com 1.10,2013-08-21 23:34:00,
2013-08-21 16:49:00,84.1,49.0,29.81,ESE,112,4.0,8.0,29,0.00,,,0.00,weatherlink.com 1.10,2013-08-21 23:49:00,
2013-08-21 17:04:00,86.3,49.0,29.82,ESE,105,4.0,8.0,27,0.00,,,0.00,weatherlink.com 1.10,2013-08-22 00:04:00,
2013-08-21 17:19:00,86.1,49.0,29.81,East,83,2.0,8.0,28,0.00,,,0.00,weatherlink.com 1.10,2013-08-22 00:19:00,
2013-08-21 17:34:00,85.7,50.0,29.81,East,88,5.0,9.0,29,0.00,,,0.00,weatherlink.com 1.10,2013-08-22 00:34:00,
2013-08-21 17:49:00,85.4,51.0,29.81,East,101,1.0,7.0,30,0.00,,,0.00,weatherlink.com 1.10,2013-08-22 00:49:00,
2013-08-21 18:04:00,84.6,49.0,29.80,East,92,2.0,6.0,29,0.00,,,0.00,weatherlink.com 1.10,2013-08-22 01:04:00,
2013-08-21 18:19:00,83.2,49.0,29.80,ESE,114,4.0,9.0,30,0.00,,,0.00,weatherlink.com 1.10,2013-08-22 01:19:00,
2013-08-21 18:34:00,82.2,50.0,29.80,ENE,73,2.0,7.0,33,0.00,,,0.00,weatherlink.com 1.10,2013-08-22 01:34:00,
2013-08-21 18:49:00,80.7,49.0,29.80,ENE,61,1.0,8.0,33,0.00,,,0.00,weatherlink.com 1.10,2013-08-22 01:49:00,
2013-08-21 19:05:00,78.9,47.0,29.80,ENE,61,0.0,3.0,32,0.00,,,0.00,weatherlink.com 1.10,2013-08-22 02:05:00,
2013-08-21 19:20:00,76.3,44.0,29.81,ENE,61,1.0,4.0,32,0.00,,,0.00,weatherlink.com 1.10,2013-08-22 02:20:00,
2013-08-21 19:35:00,73.6,43.0,29.82,ENE,60,1.0,3.0,34,0.00,,,0.00,weatherlink.com 1.10,2013-08-22 02:35:00,
2013-08-21 19:50:00,70.6,42.0,29.82,ENE,60,2.0,4.0,35,0.00,,,0.00,weatherlink.com 1.10,2013-08-22 02:50:00,
2013-08-21 20:05:00,68.1,41.0,29.83,ENE,60,3.0,4.0,37,0.00,,,0.00,weatherlink.com 1.10,2013-08-22 03:05:00,
2013-08-21 20:20:00,66.2,40.0,29.84,ENE,60,3.0,4.0,38,0.00,,,0.00,weatherlink.com 1.10,2013-08-22 03:20:00,
2013-08-21 20:35:00,65.3,40.0,29.84,ENE,60,2.0,3.0,40,0.00,,,0.00,weatherlink.com 1.10,2013-08-22 03:35:00,
2013-08-21 20:50:00,64.7,40.0,29.85,ENE,60,2.0,3.0,40,0.00,,,0.00,weatherlink.com 1.10,2013-08-22 03:50:00,
2013-08-21 21:05:00,63.5,40.0,29.85,ENE,60,3.0,4.0,42,0.00,,,0.00,weatherlink.com 1.10,2013-08-22 04:05:00,
2013-08-21 21:20:00,62.8,40.0,29.86,ENE,60,3.0,3.0,43,0.00,,,0.00,weatherlink.com 1.10,2013-08-22 04:20:00,
2013-08-21 21:35:00,61.6,39.0,29.87,ENE,60,2.0,5.0,43,0.00,,,0.00,weatherlink.com 1.10,2013-08-22 04:35:00,
2013-08-21 21:50:00,61.4,39.0,29.87,ENE,60,3.0,4.0,43,0.00,,,0.00,weatherlink.com 1.10,2013-08-22 04:50:00,
2013-08-21 22:05:00,60.6,38.0,29.88,ENE,60,3.0,4.0,44,0.00,,,0.00,weatherlink.com 1.10,2013-08-22 05:05:00,
2013-08-21 22:20:00,60.2,39.0,29.88,ENE,60,3.0,4.0,45,0.00,,,0.00,weatherlink.com 1.10,2013-08-22 05:20:00,
2013-08-21 22:35:00,59.7,39.0,29.88,ENE,60,3.0,4.0,46,0.00,,,0.00,weatherlink.com 1.10,2013-08-22 05:35:00,
2013-08-21 22:50:00,59.4,39.0,29.88,ENE,60,4.0,4.0,47,0.00,,,0.00,weatherlink.com 1.10,2013-08-22 05:50:00,
2013-08-21 23:05:00,59.3,39.0,29.88,ENE,60,3.0,4.0,47,0.00,,,0.00,weatherlink.com 1.10,2013-08-22 06:05:00,
2013-08-21 23:20:00,59.5,39.0,29.88,ENE,60,3.0,4.0,47,0.00,,,0.00,weatherlink.com 1.10,2013-08-22 06:20:00,
2013-08-21 23:35:00,59.1,39.0,29.88,ENE,60,4.0,4.0,48,0.00,,,0.00,weatherlink.com 1.10,2013-08-22 06:35:00,
2013-08-21 23:50:00,59.1,39.0,29.88,ENE,60,4.0,4.0,48,0.00,,,0.00,weatherlink.com 1.10,2013-08-22 06:50:00,